Regional Weather Roundup
Issued by NWS

Home | Current Version | Previous Version | Text Only | Print | Product List | Glossary On
Versions: 1 2 3 4 5 6 7 8 9 10 11 12 13 14 15 16 17 18 19 20 21 22 23 24 25 26 27 28 29 30 31 32 33 34 35 36 37 38 39 40 41 42 43
000
ASUS45 KBOI 281010
RWRID
WEATHER ROUNDUP FOR IDAHO
NATIONAL WEATHER SERVICE BOISE ID
300 AM MST SUN DEC 28 2014

NOTE: "FAIR" INDICATES FEW OR NO CLOUDS BELOW 12000 FEET
WITH NO SIGNIFICANT WEATHER AND/OR OBSTRUCTIONS TO VISIBILITY

IDZ012-014-281100-
SOUTHWEST IDAHO


CITY           SKY/WX    TMP DP  RH WIND       PRES   REMARKS
BOISE          LGT SNOW  31  29  92 E7        30.06S FOG     WCI  24
CALDWELL       CLOUDY    32  25  74 N5        30.09R WCI  27
MOUNTAIN HOME  FRZ RAIN  28  27  93 E10       30.06F FOG     WCI  19
$$

IDZ016-017-281100-
SOUTHCENTRAL IDAHO


CITY           SKY/WX    TMP DP  RH WIND       PRES   REMARKS
BURLEY         CLOUDY    29  21  72 S16       30.03F WCI  17
JEROME         LGT SNOW  28  25  88 S3        30.05F VSB 1
TWIN FALLS     CLOUDY    34  24  67 S17       30.03F WCI  23
$$

IDZ019>023-281100-
SOUTHEAST IDAHO


CITY           SKY/WX    TMP DP  RH WIND       PRES   REMARKS
IDAHO FALLS    LGT SNOW  24  20  84 S13       30.03F FOG     WCI  12
POCATELLO      CLOUDY    26  20  77 S21       30.05F WCI  12
REXBURG        LGT SNOW  21  19  92 S16G22    30.01F FOG     WCI   7
$$

IDZ006-010-011-018-031-032-281100-
CENTRAL IDAHO MOUNTAINS


CITY           SKY/WX    TMP DP  RH WIND       PRES   REMARKS
MCCALL         CLOUDY    23  20  88 W3        29.95S
HAILEY         LGT SNOW  18  18 100 NW7       30.02F VSB 3/4 WCI   8
STANLEY          N/A     19  15  84 NW3       29.93R
SALMON         CLOUDY    18  14  86 CALM      29.97R
CHALLIS        CLOUDY    14  10  84 CALM      29.94F
$$

IDZ002-004-006-007-026-281100-
NORTHERN IDAHO


CITY           SKY/WX    TMP DP  RH WIND       PRES   REMARKS
LEWISTON       CLOUDY    38  32  79 SE5       29.98R WCI  34
LOWELL           N/A     32  31  96 CALM      30.02R
COEUR D`ALENE  CLOUDY    34  30  86 SW12      29.90R WCI  25
MULLAN PASS    CLOUDY    23  19  85 W8        29.76R WCI  14
$$


USA.gov is the U.S. government's official web portal to all federal, state and local government web resources and services.